Location: Warszawa
(52.2500°N, 21.0000°E)
Time: 13:49:05
(UTC+02:00)

Vanguard 2 - Pass Details

Date: 16 February 2023
Orbit: 553 x 2927 km, 32.9° (Epoch: 27 March)

Event Time Altitude Azimuth Distance (km) Brightness Sun altitude
Rises 21:14:55 0° 251° (WSW) 4,510 11.8 -39.3°
Reaches altitude 10° 21:18:14 10° 239° (WSW) 3,870 11.2 -39.7°
Enters shadow 21:23:02 22° 212° (SSW) 3,418 10.6 -40.3°
Maximum altitude 21:26:24 26° 189° (S) 3,511 - -40.7°
Drops below altitude 10° 21:37:28 10° 142° (SE) 5,358 - -41.9°
Sets 21:43:13 0° 132° (SE) 6,614 - -42.5°
